Savannah, GA

5:04 AM EDT on April 20, 2018 (GMT -0400)
Savannah International

Weather History for KSAV - March, 2014

Change the Weather History Date:

Monday, March 31, 2014

  Actual Average Record
Temperature  
Mean Temperature 60 °F 62 °F  
Max Temperature 80 °F 74 °F 90 °F (1954)
Min Temperature 40 °F 51 °F 29 °F (1964)
Degree Days  
Heating Degree Days 5 4  
Month to date heating degree days 264 209  
Since 1 July heating degree days 1645 1727  
Cooling Degree Days 0 2  
Month to date cooling degree days 12 32  
Year to date cooling degree days 30 42  
Growing Degree Days 10 (Base 50)    
Moisture  
Dew Point 35 °F    
Average Humidity 49    
Maximum Humidity 82    
Minimum Humidity 15    
Precipitation  
Precipitation 0.00 in 0.13 in 2.20 in (1926)
Month to date precipitation 2.65 3.73  
Year to date precipitation 6.76 10.21  
Sea Level Pressure  
Sea Level Pressure 30.11 in    
Wind  
Wind Speed 4 mph (SSW)    
Max Wind Speed 16 mph    
Max Gust Speed 17 mph    
Visibility 10 miles    
Events      
T = Trace of Precipitation, MM = Missing Value Source: NWS Daily Summary

Daily Weather History Graph

Daily Weather History Graph

Search for Another Location

Airport or City:

Astronomy

Mar. 31, 2014 Rise Set
Actual Time 7:14 AM EDT 7:43 PM EDT
Civil Twilight 6:49 AM EDT 8:08 PM EDT
Nautical Twilight 6:20 AM EDT 8:37 PM EDT
Astronomical Twilight 5:51 AM EDT 9:06 PM EDT
Moon 7:40 AM EDT (3/31) 8:55 PM EDT (3/31)
Length of Visible Light 13h 18m
Length of Day
12h 29m
New Moon, 1% of the Moon is Illuminated
Mar 31
New Moon
Apr 7
First Quarter
Apr 15
Full
Apr 22
Last Quarter
Apr 29
New

Hourly Weather History & Observations

Time (EDT) Temp. Windchill Dew Point Humidity Pressure Visibility Wind Dir Wind Speed Gust Speed Precip Events Conditions
12:53 AM 53.1 °F - 34.0 °F 48% 30.07 in 10.0 mi WNW 5.8 mph - N/A   Clear
1:53 AM 51.1 °F - 34.0 °F 52% 30.09 in 10.0 mi Calm Calm - N/A   Clear
2:53 AM 46.9 °F - 35.1 °F 63% 30.09 in 10.0 mi Calm Calm - N/A   Clear
3:53 AM 45.0 °F - 37.0 °F 74% 30.07 in 10.0 mi Calm Calm - N/A   Clear
4:53 AM 44.1 °F - 36.0 °F 73% 30.07 in 10.0 mi Calm Calm - N/A   Clear
5:53 AM 42.1 °F - 37.0 °F 82% 30.09 in 10.0 mi Calm Calm - N/A   Clear
6:53 AM 41.0 °F 39.0 °F 36.0 °F 82% 30.11 in 10.0 mi West 3.5 mph - N/A   Clear
7:53 AM 42.1 °F - 36.0 °F 79% 30.13 in 10.0 mi Calm Calm - N/A   Clear
8:53 AM 51.1 °F - 39.9 °F 66% 30.15 in 10.0 mi NNW 3.5 mph - N/A   Clear
9:53 AM 59.0 °F - 36.0 °F 42% 30.17 in 10.0 mi Calm Calm - N/A   Clear
10:53 AM 66.0 °F - 30.0 °F 26% 30.17 in 10.0 mi NNW 5.8 mph - N/A   Clear
11:53 AM 69.1 °F - 28.9 °F 22% 30.16 in 10.0 mi Variable 3.5 mph - N/A   Clear
12:53 PM 72.0 °F - 30.9 °F 22% 30.14 in 10.0 mi West 5.8 mph - N/A   Clear
1:53 PM 75.2 °F - 32.0 °F 21% 30.13 in 10.0 mi Variable 4.6 mph - N/A   Scattered Clouds
2:53 PM 77.0 °F - 30.2 °F 18% 30.10 in 10.0 mi SSE 5.8 mph - N/A   Scattered Clouds
3:53 PM 80.6 °F - 28.4 °F 15% 30.09 in 10.0 mi NW 8.1 mph - N/A   Scattered Clouds
4:53 PM 78.8 °F - 37.4 °F 23% 30.08 in 10.0 mi South 12.7 mph 17.3 mph N/A   Scattered Clouds
5:53 PM 73.4 °F - 37.4 °F 27% 30.08 in 10.0 mi South 11.5 mph - N/A   Scattered Clouds
6:53 PM 71.6 °F - 39.2 °F 31% 30.09 in 10.0 mi South 9.2 mph - N/A   Scattered Clouds
7:53 PM 62.6 °F - 37.4 °F 39% 30.10 in 10.0 mi South 8.1 mph - N/A   Scattered Clouds
8:53 PM 59.0 °F - 36.0 °F 42% 30.12 in 10.0 mi South 5.8 mph - N/A   Clear
9:53 PM 57.9 °F - 37.0 °F 46% 30.13 in 10.0 mi South 4.6 mph - N/A   Clear
10:53 PM 57.0 °F - 39.9 °F 53% 30.14 in 10.0 mi South 3.5 mph - N/A   Scattered Clouds
11:53 PM 57.0 °F - 39.0 °F 51% 30.14 in 10.0 mi SSW 3.5 mph - N/A   Mostly Cloudy